C7607 Weather Reports


time (UTC)temp
C
wind
direction
speed
KPH
gust
KPH
rain 1hr
cm
rain 24hr
cm
rain mn
cm
humidity
%
barometer
mb
20260508024549 12 0 0.0 0.0 0.00 0.99 0.97 94 1013.7
20260508023042 12 0 0.0 0.0 0.00 0.99 0.97 94 1013.6
20260508021539 12 0 0.0 0.0 0.00 0.99 0.97 94 1013.5
20260508020036 12 0 0.0 0.0 0.00 0.99 0.97 94 1013.3
20260508014541 12 0 0.0 3.2 0.00 0.99 0.97 94 1013.1
20260508013047 12 26 1.6 4.8 0.00 0.99 0.97 94 1012.7
20260508011538 12 44 1.6 3.2 0.00 0.99 0.97 94 1012.5
20260508010039 12 0 0.0 1.6 0.00 0.99 0.97 93 1012.7
20260508004536 12 0 0.0 1.6 0.00 0.99 0.97 93 1012.3
20260508003041 12 0 0.0 6.4 0.00 0.99 0.97 93 1012.4
20260508001542 12 70 0.0 6.4 0.00 0.99 0.97 93 1012.0
20260508000041 12 25 0.0 8.0 0.00 0.99 0.97 92 1012.1
20260507234537 12 318 3.2 9.7 0.00 0.99 0.97 92 1011.6
20260507233043 13 332 1.6 8.0 0.00 0.99 0.97 91 1011.4
20260507231538 13 41 3.2 14.5 0.00 0.99 0.97 91 1011.2
20260507230045 13 5 4.8 14.5 0.00 0.99 0.97 91 1010.8
20260507224542 13 19 0.0 16.1 0.00 0.99 0.97 91 1011.0
20260507223038 13 37 4.8 14.5 0.00 0.99 0.97 90 1010.8
20260507221543 13 5 4.8 19.3 0.00 0.99 0.97 91 1010.7
20260507220043 13 350 1.6 17.7 0.00 0.99 0.97 92 1011.2
20260507214556 13 61 3.2 19.3 0.00 0.99 0.97 92 1011.1
20260507213043 13 5 6.4 16.1 0.00 0.99 0.97 93 1010.9
20260507211550 12 26 4.8 17.7 0.00 0.99 0.97 94 1010.9
20260507210050 12 331 6.4 16.1 0.00 0.99 0.97 94 1010.8
20260507204543 13 34 3.2 16.1 0.00 0.99 0.97 94 1010.6
20260507203101 13 340 4.8 17.7 0.00 0.99 0.97 94 1010.6
20260507201546 13 49 8.0 20.9 0.00 0.99 0.97 94 1010.6
20260507200055 13 17 4.8 20.9 0.00 0.99 0.97 95 1010.3
20260507194537 13 46 6.4 19.3 0.00 1.07 0.97 96 1010.4
20260507193044 13 58 4.8 19.3 0.00 1.07 0.97 96 1010.3
20260507191543 13 326 4.8 11.3 0.00 1.07 0.97 96 1010.6
20260507190042 13 52 8.0 17.7 0.03 1.07 0.97 96 1010.7
20260507184541 13 11 4.8 20.9 0.03 1.19 0.97 96 1010.3
20260507183036 13 11 4.8 12.9 0.05 1.19 0.97 96 1010.7
20260507181543 13 313 6.4 22.5 0.05 1.19 0.97 96 1009.9
20260507180047 14 5 4.8 25.7 0.03 1.17 0.94 96 1010.0
20260507174544 14 5 6.4 22.5 0.05 1.17 0.94 96 1009.8
20260507173040 14 321 9.7 22.5 0.05 1.14 0.91 95 1010.8
20260507171544 15 9 6.4 20.9 0.10 1.14 0.91 95 1010.0
20260507170043 16 313 11.3 27.4 0.10 1.14 0.91 93 1009.3
20260507164556 19 0 1.6 6.4 0.13 1.12 0.89 97 1009.1
20260507163041 19 25 3.2 12.9 0.10 1.09 0.86 97 1009.5
20260507161542 19 350 3.2 9.7 0.05 1.04 0.81 97 1010.5
20260507160044 20 0 0.0 4.8 0.08 1.02 0.79 97 1010.4
20260507154550 20 0 3.2 8.0 0.05 0.99 0.76 97 1010.5
20260507153042 20 240 0.0 4.8 0.08 0.99 0.76 97 1010.0
20260507151541 19 209 0.0 1.6 0.15 0.99 0.76 97 1010.1
20260507150039 19 0 0.0 6.4 0.13 0.94 0.71 97 1010.4
20260507144537 19 0 0.0 9.7 0.15 0.94 0.71 97 1010.2
20260507143042 19 0 0.0 4.8 0.18 0.91 0.69 97 1010.4
20260507141547 19 221 1.6 8.0 0.10 0.84 0.61 97 1010.3
20260507140038 19 227 1.6 8.0 0.08 0.81 0.58 97 1010.5
20260507134541 19 222 3.2 8.0 0.03 0.76 0.53 97 1010.7
20260507133059 19 252 3.2 11.3 0.00 0.74 0.51 97 1011.0
20260507131550 19 211 1.6 8.0 0.00 0.74 0.51 97 1010.9
20260507130056 18 229 1.6 8.0 0.00 0.74 0.51 97 1010.8
20260507124537 18 0 0.0 6.4 0.00 0.74 0.51 97 1011.1
20260507123043 18 188 0.0 4.8 0.00 0.74 0.51 97 1011.0
20260507121545 18 0 0.0 4.8 0.00 0.74 0.51 98 1010.8
20260507120053 18 0 0.0 6.4 0.00 0.74 0.51 97 1011.0
20260507114603 18 0 0.0 9.7 0.00 0.74 0.51 97 1010.9
20260507113036 18 219 1.6 6.4 0.03 0.74 0.51 97 1011.3
20260507111536 18 213 3.2 8.0 0.03 0.74 0.51 97 1011.2
20260507110043 18 190 3.2 9.7 0.03 0.74 0.51 97 1011.2
20260507104543 18 218 0.0 4.8 0.03 0.74 0.51 97 1010.9
20260507103039 18 161 1.6 6.4 0.00 0.71 0.48 97 1010.7
20260507101542 18 0 0.0 1.6 0.00 0.71 0.48 97 1010.7
20260507100036 17 201 0.0 3.2 0.00 0.71 0.48 97 1010.8
20260507094534 17 0 0.0 0.0 0.00 0.71 0.48 97 1010.6
20260507093042 17 200 0.0 4.8 0.00 0.71 0.48 97 1011.1
20260507091549 17 0 0.0 0.0 0.00 0.71 0.48 97 1010.7
20260507090049 17 0 0.0 0.0 0.03 0.71 0.48 97 1010.9
20260507084554 17 0 0.0 1.6 0.03 0.71 0.48 96 1011.1
20260507083043 18 0 0.0 4.8 0.05 0.71 0.48 96 1011.2
20260507081547 18 0 0.0 6.4 0.05 0.71 0.48 96 1011.7
20260507080044 18 0 0.0 0.0 0.03 0.69 0.46 96 1011.6
20260507074538 18 0 0.0 0.0 0.03 0.69 0.46 96 1011.1
20260507073036 18 0 0.0 0.0 0.00 0.66 0.43 96 1012.0
20260507071543 18 214 0.0 4.8 0.00 0.66 0.43 96 1012.0
20260507070042 18 0 0.0 4.8 0.00 0.66 0.43 96 1012.2
20260507064541 18 216 0.0 3.2 0.00 0.66 0.43 96 1012.3
20260507063043 18 0 0.0 4.8 0.00 0.66 0.43 96 1012.8
20260507061537 18 206 0.0 1.6 0.00 0.66 0.43 95 1012.5
20260507060044 18 0 0.0 3.2 0.10 0.66 0.43 95 1012.6
20260507054545 18 193 0.0 6.4 0.20 0.66 0.43 95 1012.8
20260507053040 18 255 4.8 9.7 0.28 0.66 0.43 95 1012.7
20260507051545 18 213 3.2 6.4 0.41 0.66 0.43 94 1012.1
20260507050046 18 176 3.2 12.9 0.33 0.56 0.33 93 1012.3
20260507044543 19 183 0.0 11.3 0.23 0.46 0.23 92 1012.7
20260507043042 19 213 6.4 14.5 0.18 0.38 0.15 91 1014.1
20260507041543 20 235 6.4 17.7 0.05 0.25 0.03 88 1014.5
20260507040054 20 239 4.8 16.1 0.03 0.23 0.00 87 1014.0
20260507034538 20 174 3.2 8.0 0.03 0.23 0.23 86 1013.5
20260507033046 21 0 0.0 9.7 0.00 0.20 0.20 84 1012.6
20260507031540 21 167 4.8 12.9 0.00 0.20 0.20 82 1013.2
20260507030044 22 124 3.2 9.7 0.00 0.20 0.20 76 1013.3